Location: Newark
(31.5350°N, 35.0986°E)
Time: 09:01:42
(UTC+00:00)

Vanguard 1 - Pass Details

Date: 28 September 2019
Orbit: 653 x 3830 km, 34.3° (Epoch: 14 October)

Event Time Altitude Azimuth Distance (km) Brightness Sun altitude
Rises 20:03:05 0° 225° (SW) 6,007 14.1 -54.1°
Enters shadow 20:05:36 - 222° (SW) 5,511 13.8 -54.5°
Reaches altitude 10° 20:06:30 10° 221° (SW) 5,343 - -54.6°
Maximum altitude 20:23:55 62° 145° (SE) 3,862 - -56.7°
Exits shadow 20:40:46 24° 77° (ENE) 5,805 13.7 -58.4°
Drops below altitude 10° 20:46:55 10° 72° (ENE) 6,816 14.2 -58.9°
Sets 20:51:57 0° 70° (ENE) 7,668 14.6 -59.3°
